Location: Wallasey
(53.4265°N, 3.0662°W)
Time: 07:53:50
(UTC+01:00)

NOAA 18 - Visible Passes

Search period start: 17 September 2019 00:00
Search period end: 27 September 2019 00:00
Orbit: 841 x 860 km, 99.1° (Epoch: 16 September)

Date Brightness Start Highest point End Pass type
(mag) Time Alt. Az. Time Alt. Az. Time Alt. Az.
17 Sep 5.5 20:30:18 10° SE 20:35:37 51° ENE 20:41:01 10° N visible
17 Sep 6.7 22:11:58 12° SSW 22:16:31 33° W 22:21:33 10° NNW visible
18 Sep 5.7 20:18:46 10° SE 20:23:57 43° ENE 20:29:10 10° N visible
18 Sep 6.3 22:00:14 14° SSW 22:04:41 40° W 22:09:55 10° NNW visible
19 Sep 5.9 20:07:16 10° SE 20:12:17 36° ENE 20:17:20 10° N visible
19 Sep 6.0 21:48:29 15° S 21:52:50 49° W 21:58:15 10° NNW visible
20 Sep 6.1 19:55:51 10° ESE 20:00:38 31° ENE 20:05:28 10° N visible
20 Sep 5.7 21:36:44 17° S 21:41:03 59° WSW 21:46:34 10° NNW visible
20 Sep 7.9 23:21:18 10° W 23:22:55 11° W 23:24:32 10° WNW visible
21 Sep 6.3 19:44:30 10° ESE 19:49:01 27° NE 19:53:34 10° N visible
21 Sep 5.4 21:25:00 18° S 21:29:15 72° WSW 21:34:51 10° NNW visible
21 Sep 7.7 23:08:07 10° WSW 23:10:56 14° W 23:13:47 10° NW visible
22 Sep 5.2 21:13:15 18° SSE 21:17:29 86° WSW 21:23:06 10° NNW visible
22 Sep 7.6 22:55:25 10° SW 22:58:59 17° W 23:02:35 10° NW visible
23 Sep 5.2 21:01:31 18° SSE 21:05:44 80° ENE 21:11:20 10° NNW visible
23 Sep 7.3 22:43:32 12° SW 22:47:04 21° W 22:51:13 10° NW visible
24 Sep 5.2 20:49:46 17° SSE 20:54:00 67° ENE 20:59:33 10° NNW visible
24 Sep 7.1 22:31:48 15° SW 22:35:09 25° W 22:39:44 10° NW visible
25 Sep 5.4 20:38:02 17° SE 20:42:18 56° ENE 20:47:45 10° N visible
25 Sep 6.8 22:20:03 18° SW 22:23:16 31° W 22:28:11 10° NNW visible
26 Sep 5.6 20:26:18 15° SE 20:30:36 47° ENE 20:35:55 10° N visible
26 Sep 6.5 22:08:19 21° SSW 22:11:25 37° W 22:16:34 10° NNW visible
